Location: Lake Harris Campground
(43.9775°N, 74.1317°W)
Time: 20:25:48
(UTC-04:00)

ISS - All Passes

Search period start: 30 August 2016 00:00
Search period end: 09 September 2016 00:00
Orbit: 402 x 406 km, 51.6° (Epoch: 30 August)

Date Brightness Start Highest point End Pass type
(mag) Time Alt. Az. Time Alt. Az. Time Alt. Az.
30 Aug - 08:19:41 10° SW 08:22:55 56° SE 08:26:10 10° ENE daylight
30 Aug - 09:56:34 10° W 09:59:32 30° NNW 10:02:31 10° NE daylight
30 Aug - 11:34:06 10° NW 11:36:42 21° N 11:39:18 10° NE daylight
30 Aug - 13:10:39 10° NW 13:13:47 39° NNE 13:16:54 10° E daylight
30 Aug - 14:47:11 10° WNW 14:50:14 35° SW 14:53:15 10° SSE daylight
31 Aug - 07:27:39 10° SSW 07:30:35 30° SE 07:33:32 10° ENE daylight
31 Aug - 09:03:50 10° W 09:06:59 42° NNW 09:10:09 10° NE daylight
31 Aug - 10:41:26 10° NW 10:44:02 21° N 10:46:38 10° NE daylight
31 Aug - 12:18:16 10° NW 12:21:12 29° NNE 12:24:08 10° E daylight
31 Aug - 13:54:38 10° WNW 13:57:53 65° SW 14:01:08 10° SE daylight
01 Sep - 06:36:06 10° S 06:38:20 17° SE 06:40:34 10° E daylight
01 Sep - 08:11:13 10° WSW 08:14:28 68° NNW 08:17:46 10° NE daylight
01 Sep - 09:48:39 10° WNW 09:51:22 23° N 09:54:06 10° NE daylight
01 Sep - 11:25:50 10° NW 11:28:35 24° N 11:31:19 10° ENE daylight
01 Sep - 13:02:10 10° NW 13:05:27 71° NNE 13:08:43 10° ESE daylight
01 Sep - 14:39:27 10° W 14:41:35 16° SW 14:43:42 10° S daylight
02 Sep - 07:18:46 10° SW 07:22:02 70° SE 07:25:19 10° ENE daylight
02 Sep - 08:55:50 10° WNW 08:58:44 28° NNW 09:01:39 10° NE daylight
02 Sep - 10:33:18 10° NW 10:35:55 21° N 10:38:32 10° ENE daylight
02 Sep - 12:09:46 10° NW 12:12:57 44° NNE 12:16:08 10° E daylight
02 Sep - 13:46:26 10° WNW 13:49:19 29° SW 13:52:13 10° SSE daylight
03 Sep - 06:26:37 10° SSW 06:29:40 37° SE 06:32:44 10° ENE daylight
03 Sep - 08:03:02 10° W 08:06:08 37° NNW 08:09:15 10° NE daylight
03 Sep - 09:40:39 10° NW 09:43:14 21° N 09:45:49 10° NE daylight
03 Sep - 11:17:23 10° NW 11:20:23 31° NNE 11:23:22 10° E daylight
03 Sep - 12:53:46 10° WNW 12:56:59 53° SW 13:00:11 10° SE daylight
04 Sep - 05:34:51 10° S 05:37:22 21° SE 05:39:55 10° E visible
04 Sep - 07:10:22 10° WSW 07:13:36 57° NNW 07:16:51 10° NE daylight
04 Sep - 08:47:53 10° WNW 08:50:33 22° N 08:53:14 10° NE daylight
04 Sep - 10:24:58 10° NW 10:27:46 25° NNE 10:30:33 10° ENE daylight
04 Sep - 12:01:16 10° WNW 12:04:34 85° NE 12:07:51 10° ESE daylight
04 Sep - 13:38:57 10° WSW 13:40:36 13° SW 13:42:16 10° SSW daylight
05 Sep - 04:44:00 10° SSE 04:45:09 11° SE 04:46:17 10° ESE visible
05 Sep - 06:17:51 10° SW 06:21:07 84° SSE 06:24:25 10° ENE daylight
05 Sep - 07:55:03 10° WNW 07:57:53 26° NNW 08:00:44 10° NE daylight
05 Sep - 09:32:26 10° NW 09:35:05 22° N 09:37:44 10° ENE daylight
05 Sep - 11:08:51 10° NW 11:12:04 51° NNE 11:15:17 10° ESE daylight
05 Sep - 12:45:39 10° W 12:48:22 24° SW 12:51:03 10° SSE daylight
06 Sep - 05:25:34 10° SW 05:28:43 46° SE 05:31:53 10° ENE visible
06 Sep - 07:02:14 10° W 07:05:16 34° NNW 07:08:18 10° NE daylight
06 Sep - 08:39:49 10° NW 08:42:23 21° N 08:44:59 10° NE daylight
06 Sep - 10:16:27 10° NW 10:19:31 35° NNE 10:22:34 10° E daylight
06 Sep - 11:52:53 10° WNW 11:56:02 43° SW 11:59:10 10° SE daylight
07 Sep - 04:33:38 10° SSW 04:36:23 25° SE 04:39:09 10° E visible
07 Sep - 06:09:30 10° WSW 06:12:41 49° NNW 06:15:55 10° NE daylight
07 Sep - 07:47:04 10° WNW 07:49:42 22° N 07:52:20 10° NE daylight
07 Sep - 09:24:01 10° NW 09:26:53 27° NNE 09:29:44 10° ENE daylight
07 Sep - 11:00:20 10° WNW 11:03:38 80° SSW 11:06:55 10° SE daylight
07 Sep - 12:38:44 10° WSW 12:39:35 11° SW 12:40:26 10° SW daylight
08 Sep - 03:42:19 10° SSE 03:44:07 14° SE 03:45:55 10° E visible
08 Sep - 05:16:54 10° WSW 05:20:11 81° NNW 05:23:29 10° ENE visible
08 Sep - 06:54:14 10° WNW 06:57:00 24° NNW 06:59:47 10° NE daylight
08 Sep - 08:31:32 10° NW 08:34:13 22° N 08:36:54 10° ENE daylight
08 Sep - 10:07:53 10° NW 10:11:09 60° NNE 10:14:24 10° ESE daylight
08 Sep - 11:44:53 10° W 11:47:21 20° SW 11:49:48 10° S daylight
